TDRS 8

Last updated on Sun Mar 15 2026 00:02:46 GMT+0000 (Coordinated Universal Time)

1 26388U 00034A 26073.37125733 -.00000190 00000+0 00000+0 0 9992 2 26388 12.5354 32.1132 0006196 314.7828 43.6033 1.00274618 94221
UTC large
Height (km)
Speed (km/s)
/
Latitude / Longitude
Inclination (degrees)
Orbital Period (minutes)
Azimuth
Elevation
Range (km)
Doppler Factor

Next 0 passes for location: London (51.5072 / 0.1276)

Sorry there are no passes over London.